Location: Hamayl? Da??
(36.7028°N, 30.1716°E)
Time: 08:55:44
(UTC+00:00)

Vanguard 1 - Pass Details

Date: 18 December 2025
Orbit: 651 x 3820 km, 34.2° (Epoch: 18 January)

Event Time Altitude Azimuth Distance (km) Brightness Sun altitude
Rises 04:28:15 0° 207° (SSW) 3,083 12.6 -7.7°
Reaches altitude 10° 04:31:41 10° 181° (S) 2,048 12.1 -7.1°
Maximum altitude 04:34:02 14° 148° (SSE) 1,792 12.4 -6.6°
Drops below altitude 10° 04:36:26 10° 115° (ESE) 2,113 13.7 -6.2°
Sets 04:40:05 0° 90° (E) 3,257 14.1 -5.5°
